Regional Weather Roundup
Issued by NWS Green Bay, WI

Home | Current Version | Previous Version | Graphics & Text | Print | Product List | Glossary Off
Versions: 1 2 3 4 5 6 7 8 9 10 11 12 13 14 15 16 17 18 19 20 21 22 23 24 25 26 27 28 29 30 31 32 33 34 35 36 37 38 39 40 41 42 43 44 45 46 47 48 49 50

000
ASUS43 KGRB 220210
RWRGRB

NORTH-CENTRAL AND NORTHEAST WISCONSIN REGIONAL WEATHER ROUNDUP
NATIONAL WEATHER SERVICE GREEN BAY WI
800 PM CST SUN DEC 21 2014

WIZ005-009-010>012-018-019-220300-
NORTH CENTRAL WISCONSIN

CITY           SKY/WX    TMP DP  RH WIND       PRES   REMARKS
IRONWOOD       CLOUDY    34  32  93 S9        29.78S
MANITOWISH WTR LGT SNOW  32  32 100 S10       29.81S
ARBOR VITAE    LGT SNOW  34  32  93 S12       29.82S
EAGLE RIVER    LGT SNOW  32  32 100 S6        29.83F
LAND O LAKES   LGT SNOW  33  32  98 S7        29.84S
RHINELANDER    LGT SNOW  32  30  92 S8        29.85S FOG
PHILLIPS       FLURRIES  32  32  99 S12       29.80S
ANTIGO         LGT SNOW  32  32 100 S13       29.88F
TOMAHAWK       LGT RAIN  32  31  98 S7        29.84F
MERRILL        LGT SNOW  33  33 100 S12G17    29.86S
$$

WIZ013-073-220300-
NORTHEAST WISCONSIN

CITY           SKY/WX    TMP DP  RH WIND       PRES   REMARKS
IRON MOUNTAIN  CLOUDY    33  31  92 S17G23    29.91F FOG
MARINETTE      CLOUDY    36  32  87 S14G20    29.99F
OCONTO         CLOUDY    34  33  95 S9        29.99F
$$

WIZ017-030-035>037-045-220300-
CENTRAL WISCONSIN

CITY           SKY/WX    TMP DP  RH WIND       PRES   REMARKS
MEDFORD        DRIZZLE   32  32  99 S15       29.83S
WAUSAU         LGT SNOW  33  32  96 S14       29.87S FOG
MOSINEE        CLOUDY    34  34 100 S18       29.89S FOG
MARSHFIELD     MIX PCPN  34  33  96 S16       29.85F FOG
WISC RAPIDS    MIX PCPN  35  32  88 S10       29.90F FOG
STEVENS POINT  DRIZZLE   32  32  99 S7        29.90F
WAUPACA        CLOUDY    37  32  82 SE10G16   29.95F
SHAWANO        CLOUDY    36  33  87 S8        29.96F FOG
CLINTONVILLE   CLOUDY    34  32  93 S10       29.95F
$$

WIZ038-039-048-051-220300-
FOX VALLEY

CITY           SKY/WX    TMP DP  RH WIND       PRES   REMARKS
NWS GREEN BAY  CLOUDY    36  31  82 S16       29.99F
APPLETON       CLOUDY    34  30  86 S14       29.98F
OSHKOSH        CLOUDY    35  30  82 S13       29.98F
FOND DU LAC    CLOUDY    36  29  75 S18G29    29.98F
$$

WIZ022-050-052-220300-
EAST CENTRAL WISCONSIN

CITY           SKY/WX    TMP DP  RH WIND       PRES   REMARKS
STURGEON BAY   CLOUDY    36  32  87 S14G24    30.03S
MANITOWOC      CLOUDY    37  34  89 S18G26    30.03F
SHEBOYGAN      CLOUDY    35  30  82 S15       30.03S
$$

LMZ563-521-522-541>543-220300-
LAKESHORE

STATION/POSITION TIME  TEMP    WIND        PRES    VSBY  WAVE
                       AIR SEA DIR/SP/G                  HT/PER
                 (UTC) (F)     (DEG/KT/KT) (MB)    (MI)  (FT/S)
SHEBOYGAN LKSHOR 0200   38 36  180/ 23/ 26 1017.5S
KEWAUNEE LKSHORE 0200   37     180/ 18/ 21 1016.1S
ALGOMA MARINA    0100          220/ 23/ 25   N/A
TWO RIVERS CG    0100   37                 1017.2
NORTHPORT PIER   0200   36     150/ 12/ 20 1016.6F
SISTER BAY LKSHO 0200          180/ 17/ 25   N/A
STURGEON BAY CG  0100   37     180/ 11     1017.8      6   2
CHAMBERS ISLAND  0200   37     150/  8/ 15 1016.3S
MENOMINEE LKSHOR 0200   36     160/ 13/ 16 1016.5S
$$


USA.gov is the U.S. government's official web portal to all federal, state and local government web resources and services.